Sigfox identifier Datetime Temperature Humidity SNR
003B5D72 2019-02-20 13:45:50 20.9 24 22.9
003B5D72 2019-02-20 13:16:43 20.9 24 22.9
003B5D72 2019-02-20 12:47:35 20.8 25 22
003B5D72 2019-02-20 12:18:27 20.8 25 22.1
003B5D72 2019-02-20 11:49:21 20.8 26 23
003B5D72 2019-02-20 11:20:11 20.8 26 22.2
003B5D72 2019-02-20 10:51:07 20.8 27 22.4
003B5D72 2019-02-20 10:21:57 20.8 27 22.5
003B5D72 2019-02-20 09:52:49 20.7 27 22.4
003B5D72 2019-02-20 09:23:41 20.7 27 22.5
003B5D72 2019-02-20 08:54:33 20.7 27 21.5
003B5D72 2019-02-20 08:25:25 20.7 27 21.5
003B5D72 2019-02-20 07:56:16 20.7 27 21.6
003B5D72 2019-02-20 07:27:08 20.7 27 21.7
003B5D72 2019-02-20 06:58:00 20.7 27 21.6
003B5D72 2019-02-20 06:28:50 20.7 27 21.5
003B5D72 2019-02-20 05:59:41 20.7 27 21.3
003B5D72 2019-02-20 05:30:33 20.7 27 21.2
003B5D72 2019-02-20 05:01:26 20.8 27 21.2
003B5D72 2019-02-20 04:32:18 20.8 27 21.2
003B5D72 2019-02-20 04:03:09 20.8 27 21.1
003B5D72 2019-02-20 03:34:01 20.8 27 21.1
003B5D72 2019-02-20 03:04:53 20.8 27 21.1
003B5D72 2019-02-20 02:35:46 20.8 27 22.2
003B5D72 2019-02-20 02:06:37 20.8 27 22.1
003B5D72 2019-02-20 01:37:29 20.8 27 21.9
003B5D72 2019-02-20 01:08:22 20.8 27 22
003B5D72 2019-02-20 00:39:14 20.8 27 22
003B5D72 2019-02-20 00:10:08 20.8 27 22
003B5D72 2019-02-19 23:40:57 20.8 27 20.8
003B5D72 2019-02-19 23:11:48 20.8 27 20.7
003B5D72 2019-02-19 22:42:41 20.9 27 20.4
003B5D72 2019-02-19 22:13:32 20.9 27 20.3
003B5D72 2019-02-19 21:44:23 20.9 27 20.2
003B5D72 2019-02-19 21:15:15 20.9 27 19.9
003B5D72 2019-02-19 20:46:06 20.9 27 19.7
003B5D72 2019-02-19 20:16:57 21 27 19.6
003B5D72 2019-02-19 19:47:49 21 27 19.5
003B5D72 2019-02-19 19:18:40 21 27 19.4
003B5D72 2019-02-19 18:49:31 21 27 19.3
003B5D72 2019-02-19 18:19:40 21 27 19.1
003B5D72 2019-02-19 17:50:30 21.1 27 19.1
003B5D72 2019-02-19 17:21:20 21.1 27 19.1
003B5D72 2019-02-19 16:52:11 21.1 27 19
003B5D72 2019-02-19 16:23:00 21.1 27 18.8
003B5D72 2019-02-19 15:53:49 21.1 27 18.8
003B5D72 2019-02-19 15:24:41 21.1 27 18.6
003B5D72 2019-02-19 14:55:29 21.1 27 18.4
003B5D72 2019-02-19 14:26:20 21.1 27 14.7
003B5D72 2019-02-19 13:57:11 21.1 27 14.7
003B5D72 2019-02-19 13:28:02 21 27 14.9
003B5D72 2019-02-19 12:58:53 21 26 14.2
003B5D72 2019-02-19 12:29:46 21 26 14.1
003B5D72 2019-02-19 12:00:37 21 26 14.1
003B5D72 2019-02-19 11:31:32 21 26 13.4
003B5D72 2019-02-19 11:02:20 21 26 13.7
003B5D72 2019-02-19 10:33:13 20.9 26 13.5
003B5D72 2019-02-19 10:04:08 20.9 26 13.3
003B5D72 2019-02-19 09:34:58 20.8 25 13.3
003B5D72 2019-02-19 09:05:48 20.8 25 13.4
003B5D72 2019-02-19 08:36:40 20.8 25 13.3
003B5D72 2019-02-19 08:07:33 20.8 25 13.1
003B5D72 2019-02-19 07:38:26 20.8 25 13.2
003B5D72 2019-02-19 07:09:18 20.8 25 17.7
003B5D72 2019-02-19 06:40:10 20.8 24 17.7
003B5D72 2019-02-19 06:11:01 20.8 24 17.8
003B5D72 2019-02-19 05:12:48 20.8 24 17.9
003B5D72 2019-02-19 04:14:35 20.8 24 18.3
003B5D72 2019-02-19 03:45:24 20.8 24 18.4
003B5D72 2019-02-19 02:47:10 20.8 24 18.8
003B5D72 2019-02-19 02:17:59 20.8 24 18.8
003B5D72 2019-02-19 01:19:46 20.8 23 19
003B5D72 2019-02-19 00:21:36 20.8 23 19
003B5D72 2019-02-18 23:52:28 20.8 23 19.1
003B5D72 2019-02-18 23:23:20 20.8 23 19.3
003B5D72 2019-02-18 22:25:04 20.8 23 19.4
003B5D72 2019-02-18 21:56:00 20.8 23 19.9
003B5D72 2019-02-18 21:26:49 20.8 22 20.3
003B5D72 2019-02-18 20:28:35 20.8 22 20.4
003B5D72 2019-02-18 19:59:29 20.8 22 20.8
003B5D72 2019-02-18 19:30:24 20.9 22 20.9
003B5D72 2019-02-18 19:01:17 20.9 22 21.2
003B5D72 2019-02-18 18:32:12 20.9 22 21.3
003B5D72 2019-02-18 18:02:19 20.9 21 21.5
003B5D72 2019-02-18 17:33:14 20.9 21 21.8
003B5D72 2019-02-18 17:04:05 21 21 22
003B5D72 2019-02-18 16:05:48 21 21 22.2
003B5D72 2019-02-18 15:36:46 21 21 22.3
003B5D72 2019-02-18 15:07:36 21.1 21 21.4
003B5D72 2019-02-18 14:38:32 21.1 21 21.6
003B5D72 2019-02-18 14:09:26 21.1 20 21.8
003B5D72 2019-02-18 13:40:16 21.2 20 22
003B5D72 2019-02-18 13:11:10 21.3 20 22.2
003B5D72 2019-02-18 12:42:02 21.4 19 22.3
003B5D72 2019-02-18 12:12:57 21.5 20 22.4
003B5D72 2019-02-18 11:43:52 21.4 19 22.6
003B5D72 2019-02-18 11:14:46 21.4 19 22.6
003B5D72 2019-02-18 10:45:41 21.3 19 22.8
003B5D72 2019-02-18 10:16:35 21.3 19 23.6
003B5D72 2019-02-18 09:47:28 21.3 19 23.7
003B5D72 2019-02-18 09:18:21 21.2 19 23.9
003B5D72 2019-02-18 08:49:13 21.2 19 23.9
003B5D72 2019-02-18 08:20:05 21.2 19 23.9
003B5D72 2019-02-18 07:50:56 21.1 18 24
003B5D72 2019-02-18 07:21:50 21.1 18 24
003B5D72 2019-02-18 06:52:42 21.1 18 24.1
003B5D72 2019-02-18 06:23:34 21.1 18 24.2
003B5D72 2019-02-18 05:54:28 21.1 18 24.3
003B5D72 2019-02-18 05:25:22 21.1 18 24.4
003B5D72 2019-02-18 04:56:15 21 18 24.5
003B5D72 2019-02-18 04:27:08 21.1 19 24.4
003B5D72 2019-02-18 03:58:00 21.1 19 24.5
003B5D72 2019-02-18 03:28:53 21.1 19 24.6
003B5D72 2019-02-18 02:59:44 21 19 24.6
003B5D72 2019-02-18 02:30:37 21.1 19 24.5
003B5D72 2019-02-18 02:01:28 21.1 19 24.6
003B5D72 2019-02-18 01:32:20 21.1 19 24.5
003B5D72 2019-02-18 01:03:14 21.1 19 24.6
003B5D72 2019-02-18 00:34:08 21.1 19 24.6
003B5D72 2019-02-18 00:05:02 21.1 19 24.6
003B5D72 2019-02-17 23:35:56 21.1 19 24.6
003B5D72 2019-02-17 23:06:49 21.1 19 24.7
003B5D72 2019-02-17 22:37:41 21.1 19 24.8
003B5D72 2019-02-17 22:08:34 21.1 19 24.4
003B5D72 2019-02-17 21:39:27 21.1 20 24.4
003B5D72 2019-02-17 21:10:19 21.1 20 24.8
003B5D72 2019-02-17 20:41:11 21.1 20 25.2
003B5D72 2019-02-17 20:12:04 21.1 20 25.6
003B5D72 2019-02-17 19:42:57 21.2 20 25.6
003B5D72 2019-02-17 19:13:50 21.2 20 25.6
003B5D72 2019-02-17 18:44:43 21.2 20 25.6
003B5D72 2019-02-17 18:15:37 21.2 20 25.5
003B5D72 2019-02-17 17:45:48 21.2 20 25.5
003B5D72 2019-02-17 17:16:40 21.2 20 25.4
003B5D72 2019-02-17 16:47:32 21.2 20 25.7
003B5D72 2019-02-17 16:18:23 21.2 20 25.9
003B5D72 2019-02-17 15:49:14 21.2 20 25.8
003B5D72 2019-02-17 15:20:05 21.2 21 25.7
003B5D72 2019-02-17 14:50:58 21.2 21 25.8
003B5D72 2019-02-17 14:21:50 21.2 21 25.8
003B5D72 2019-02-17 13:52:43 21.3 21 25.8
003B5D72 2019-02-17 13:23:36 21.3 21 25.8
003B5D72 2019-02-17 12:54:29 21.3 21 25.8
003B5D72 2019-02-17 12:25:24 21.2 21 26.1
003B5D72 2019-02-17 11:56:18 21.2 21 26.1
003B5D72 2019-02-17 11:27:14 21.2 21 26.2
003B5D72 2019-02-17 10:58:09 21.2 21 26.1
003B5D72 2019-02-17 10:29:04 21.2 21 26.1
003B5D72 2019-02-17 09:59:58 21.2 21 26.1
003B5D72 2019-02-17 09:30:52 21.2 21 26
003B5D72 2019-02-17 09:01:43 21.1 21 25.7
003B5D72 2019-02-17 08:32:36 21.2 21 25.4
003B5D72 2019-02-17 08:03:29 21.2 22 25
003B5D72 2019-02-17 07:34:22 21.2 22 25
003B5D72 2019-02-17 07:05:15 21.2 22 25.1
003B5D72 2019-02-17 06:36:07 21.2 22 25.1
003B5D72 2019-02-17 06:06:59 21.2 22 25.5
003B5D72 2019-02-17 05:37:51 21.2 22 25.6
003B5D72 2019-02-17 05:08:44 21.2 22 25.6
003B5D72 2019-02-17 04:39:36 21.2 23 25.2
003B5D72 2019-02-17 04:10:28 21.2 23 25.3
003B5D72 2019-02-17 03:41:20 21.2 23 25.4
003B5D72 2019-02-17 03:12:13 21.2 23 25.4
003B5D72 2019-02-17 02:43:06 21.2 23 25.4
003B5D72 2019-02-17 02:13:57 21.2 24 25.6
003B5D72 2019-02-17 01:44:47 21.2 24 25.6
003B5D72 2019-02-17 01:15:39 21.3 24 25.6
003B5D72 2019-02-17 00:46:28 21.2 24 25.6
003B5D72 2019-02-17 00:17:19 21.2 24 25.2
003B5D72 2019-02-16 23:48:10 21.2 24 25.2
003B5D72 2019-02-16 23:19:01 21.3 24 25.3
003B5D72 2019-02-16 22:49:53 21.3 24 25.2
003B5D72 2019-02-16 22:20:45 21.3 24 25.3
003B5D72 2019-02-16 21:51:37 21.3 24 25.3
003B5D72 2019-02-16 21:22:29 21.3 25 25.4
003B5D72 2019-02-16 20:53:21 21.3 25 25.4
003B5D72 2019-02-16 20:24:11 21.3 25 25.3
003B5D72 2019-02-16 19:55:04 21.3 25 25.2
003B5D72 2019-02-16 19:25:55 21.3 25 25.2
003B5D72 2019-02-16 18:56:47 21.3 25 25.1
003B5D72 2019-02-16 18:27:39 21.3 25 25.1
003B5D72 2019-02-16 17:58:31 21.4 25 24.6
003B5D72 2019-02-16 17:28:40 21.4 25 24.5
003B5D72 2019-02-16 16:59:29 21.4 25 24.5
003B5D72 2019-02-16 16:30:19 21.5 25 24.5
003B5D72 2019-02-16 16:01:10 21.5 25 24.4
003B5D72 2019-02-16 15:32:01 21.5 25 24.3
003B5D72 2019-02-16 15:02:52 21.5 25 24.3
003B5D72 2019-02-16 14:33:43 21.5 25 24.2
003B5D72 2019-02-16 14:04:31 21.4 25 24
003B5D72 2019-02-16 13:35:23 21.4 25 24
003B5D72 2019-02-16 13:06:13 21.4 25 24
003B5D72 2019-02-16 12:37:04 21.4 25 23.9
003B5D72 2019-02-16 12:07:55 21.4 25 23.9
003B5D72 2019-02-16 11:38:47 21.3 25 23.8
003B5D72 2019-02-16 11:09:38 21.3 25 23.7
003B5D72 2019-02-16 10:40:29 21.3 25 23.7
003B5D72 2019-02-16 10:11:20 21.3 25 23.5
003B5D72 2019-02-16 09:42:10 21.3 25 23.7
003B5D72 2019-02-16 09:13:00 21.3 25 23.6
003B5D72 2019-02-16 08:43:50 21.3 25 23.6
003B5D72 2019-02-16 08:14:40 21.3 25 23.5
003B5D72 2019-02-16 07:45:31 21.3 25 23.7
003B5D72 2019-02-16 07:16:22 21.3 25 23.7
003B5D72 2019-02-16 06:47:14 21.3 25 23.7
003B5D72 2019-02-16 06:18:06 21.3 25 23.7
003B5D72 2019-02-16 05:48:55 21.3 25 23.8
003B5D72 2019-02-16 05:19:47 21.3 25 24
003B5D72 2019-02-16 04:50:38 21.3 25 23.9
003B5D72 2019-02-16 04:21:28 21.3 25 23.9
003B5D72 2019-02-16 03:52:19 21.3 25 23.8
003B5D72 2019-02-16 03:23:09 21.3 25 23.9
003B5D72 2019-02-16 02:54:01 21.4 25 23.8
003B5D72 2019-02-16 02:24:53 21.3 25 23.7
003B5D72 2019-02-16 01:55:44 21.4 25 23.8
003B5D72 2019-02-16 01:26:36 21.4 25 23.7
003B5D72 2019-02-16 00:57:26 21.4 25 23.8
003B5D72 2019-02-16 00:28:15 21.4 25 23.7
003B5D72 2019-02-15 23:59:06 21.4 25 23.7
003B5D72 2019-02-15 23:29:59 21.5 25 23.6
003B5D72 2019-02-15 23:00:50 21.5 25 23.7
003B5D72 2019-02-15 22:31:41 21.5 25 23.7
003B5D72 2019-02-15 22:02:33 21.5 25 23.6
003B5D72 2019-02-15 21:33:24 21.6 25 23.4
003B5D72 2019-02-15 21:04:15 21.6 25 23.5
003B5D72 2019-02-15 20:35:06 21.6 25 23.4
003B5D72 2019-02-15 20:05:57 21.7 25 23.4
003B5D72 2019-02-15 19:36:47 21.7 25 23.3
003B5D72 2019-02-15 19:07:37 21.7 25 23.2
003B5D72 2019-02-15 18:38:27 21.8 25 23.2
003B5D72 2019-02-15 18:09:18 21.8 25 23.2
003B5D72 2019-02-15 17:40:07 21.8 25 23.1
003B5D72 2019-02-15 17:10:15 21.8 24 23
003B5D72 2019-02-15 16:41:07 21.8 24 23.2
003B5D72 2019-02-15 16:11:59 21.8 24 23.2
003B5D72 2019-02-15 15:42:49 21.8 24 23.3
003B5D72 2019-02-15 15:13:41 21.8 24 23.3
003B5D72 2019-02-15 14:44:31 21.8 24 23.4
003B5D72 2019-02-15 14:15:22 21.8 24 23.3
003B5D72 2019-02-15 13:46:14 21.7 24 23.4
003B5D72 2019-02-15 13:17:06 21.7 24 23.5
003B5D72 2019-02-15 12:47:56 21.7 24 23.3
003B5D72 2019-02-15 12:18:48 21.7 24 23.4
003B5D72 2019-02-15 11:49:40 21.6 24 23.5
003B5D72 2019-02-15 11:20:31 21.6 24 23.5
003B5D72 2019-02-15 10:51:22 21.6 25 23.5
003B5D72 2019-02-15 10:22:14 21.6 25 23.5
003B5D72 2019-02-15 09:53:06 21.5 25 23.6
003B5D72 2019-02-15 09:23:58 21.5 25 23.6
003B5D72 2019-02-15 08:54:49 21.5 25 23.5
003B5D72 2019-02-15 08:25:40 21.4 25 23.5
003B5D72 2019-02-15 07:56:30 21.4 25 23.6
003B5D72 2019-02-15 07:27:20 21.4 25 23.6
003B5D72 2019-02-15 06:58:11 21.4 25 23.7
003B5D72 2019-02-15 06:29:02 21.4 25 23.6
003B5D72 2019-02-15 05:59:54 21.4 25 23.7
003B5D72 2019-02-15 05:30:44 21.4 25 23.7
003B5D72 2019-02-15 05:01:35 21.4 25 23.8
003B5D72 2019-02-15 04:32:26 21.4 25 23.6
003B5D72 2019-02-15 04:03:17 21.4 25 23.6
003B5D72 2019-02-15 03:34:08 21.4 25 23.6
003B5D72 2019-02-15 03:04:59 21.4 25 23.5
003B5D72 2019-02-15 02:35:50 21.5 25 23.4
003B5D72 2019-02-15 02:06:41 21.5 25 23.5
003B5D72 2019-02-15 01:37:34 21.5 25 23.4
003B5D72 2019-02-15 01:08:24 21.5 25 23.5
003B5D72 2019-02-15 00:39:16 21.5 25 23.4
003B5D72 2019-02-15 00:10:07 21.5 25 23.3
003B5D72 2019-02-14 23:40:59 21.5 25 23.4
003B5D72 2019-02-14 23:11:50 21.5 25 23.2
003B5D72 2019-02-14 22:42:41 21.6 25 23
003B5D72 2019-02-14 22:13:33 21.6 25 22.9
003B5D72 2019-02-14 21:44:24 21.6 25 22.7
003B5D72 2019-02-14 21:15:15 21.6 25 22.9
003B5D72 2019-02-14 20:46:07 21.7 24 22.8
003B5D72 2019-02-14 20:16:58 21.7 24 22.8
003B5D72 2019-02-14 19:47:50 21.7 24 22.8
003B5D72 2019-02-14 19:18:41 21.8 24 22.8
003B5D72 2019-02-14 18:49:30 21.8 24 22.8
003B5D72 2019-02-14 18:20:20 21.9 24 22.8
003B5D72 2019-02-14 17:51:10 21.9 24 22.6
003B5D72 2019-02-14 17:22:00 21.9 24 22.7
003B5D72 2019-02-14 16:52:08 21.9 24 22.6
003B5D72 2019-02-14 16:23:00 21.9 25 22.8
003B5D72 2019-02-14 15:53:52 21.9 24 23.4
003B5D72 2019-02-14 15:24:46 21.9 24 23.3
003B5D72 2019-02-14 14:55:39 21.7 24 23.3
003B5D72 2019-02-14 14:26:31 21.7 24 23.3
003B5D72 2019-02-14 13:57:22 21.6 24 23.3
003B5D72 2019-02-14 13:28:13 21.6 24 23.9
003B5D72 2019-02-14 12:59:05 21.5 24 23.9
003B5D72 2019-02-14 12:29:56 21.4 23 24
003B5D72 2019-02-14 12:00:47 21.4 24 24.1
003B5D72 2019-02-14 11:31:38 21.4 24 24.1
003B5D72 2019-02-14 11:02:29 21.3 24 24.3
003B5D72 2019-02-14 10:33:20 21.1 24 24.4
003B5D72 2019-02-14 10:04:10 21 24 24.4
003B5D72 2019-02-14 09:35:01 21 24 24.5
003B5D72 2019-02-14 09:05:52 20.9 24 24.6
003B5D72 2019-02-14 08:36:45 20.8 24 24.6
003B5D72 2019-02-14 08:07:37 20.8 24 24.7
003B5D72 2019-02-14 07:38:29 20.9 25 24.6
003B5D72 2019-02-14 07:09:26 20.9 25 24.6
003B5D72 2019-02-14 06:40:13 20.9 25 24.6
003B5D72 2019-02-14 06:11:04 20.9 25 24.6
003B5D72 2019-02-14 05:41:55 20.9 25 24.6
003B5D72 2019-02-14 05:12:46 20.9 25 24.6
003B5D72 2019-02-14 04:43:37 20.9 25 24.5
003B5D72 2019-02-14 04:14:27 20.9 25 24.4
003B5D72 2019-02-14 03:45:19 20.9 25 23.9
003B5D72 2019-02-14 03:16:11 20.9 25 24
003B5D72 2019-02-14 02:47:03 20.9 25 23.8
003B5D72 2019-02-14 02:17:53 20.9 25 23.8
003B5D72 2019-02-14 01:48:44 21 25 23.8
003B5D72 2019-02-14 01:19:35 21 25 23.1
003B5D72 2019-02-14 00:50:27 20.9 25 23
003B5D72 2019-02-14 00:21:19 20.9 25 22.8
003B5D72 2019-02-13 23:52:11 21 25 22.7
003B5D72 2019-02-13 23:23:02 21 25 22.6
003B5D72 2019-02-13 22:53:54 21 25 22.3
003B5D72 2019-02-13 22:24:46 21.1 25 22.4
003B5D72 2019-02-13 21:55:37 21.1 25 22.2
003B5D72 2019-02-13 21:26:28 21.1 25 22.1
003B5D72 2019-02-13 20:57:19 21.2 25 22.1
003B5D72 2019-02-13 20:28:08 21.3 25 22.2
003B5D72 2019-02-13 19:59:01 21.3 25 22
003B5D72 2019-02-13 19:29:53 21.4 25 22.1
003B5D72 2019-02-13 19:00:44 21.5 25 22
003B5D72 2019-02-13 18:31:35 21.5 25 21.9
003B5D72 2019-02-13 18:02:26 21.6 26 21.8
003B5D72 2019-02-13 17:33:18 21.5 26 21.8
003B5D72 2019-02-13 17:04:09 21.5 26 21.9
003B5D72 2019-02-13 16:34:18 21.4 25 22.1
003B5D72 2019-02-13 16:05:09 21.3 25 22.2
003B5D72 2019-02-13 15:35:59 21.3 25 22.9
003B5D72 2019-02-13 15:06:49 21.3 25 22.9
003B5D72 2019-02-13 14:37:39 21.2 24 22.9
003B5D72 2019-02-13 14:08:29 21.2 24 23
003B5D72 2019-02-13 13:39:21 21.3 24 22.9
003B5D72 2019-02-13 13:10:11 21.3 24 23
003B5D72 2019-02-13 12:41:01 21.2 24 22.9
003B5D72 2019-02-13 12:11:52 21.2 24 23.2
003B5D72 2019-02-13 11:42:43 21.2 24 23.2
003B5D72 2019-02-13 11:13:34 21.1 24 23.3
003B5D72 2019-02-13 10:44:24 21 23 23.5
003B5D72 2019-02-13 10:15:17 21 23 23.5
003B5D72 2019-02-13 09:46:06 21 22 23.7
003B5D72 2019-02-13 09:16:55 20.9 22 23.7
003B5D72 2019-02-13 08:47:44 20.9 21 23.8
003B5D72 2019-02-13 08:18:35 20.8 21 23.8
003B5D72 2019-02-13 07:49:26 20.8 20 23.9
003B5D72 2019-02-13 07:20:15 20.9 19 23.7
003B5D72 2019-02-13 06:51:04 20.8 19 23.7
003B5D72 2019-02-13 06:21:53 20.9 19 23.8
003B5D72 2019-02-13 05:52:42 20.9 19 23.8
003B5D72 2019-02-13 05:23:31 20.9 19 23.6
003B5D72 2019-02-13 04:54:20 20.9 19 23.5
003B5D72 2019-02-13 04:25:12 20.9 19 23.3
003B5D72 2019-02-13 03:56:00 20.9 19 23.2
003B5D72 2019-02-13 03:26:51 20.9 19 22.4
003B5D72 2019-02-13 02:57:41 20.9 19 22.4
003B5D72 2019-02-13 02:28:29 20.9 19 22.5
003B5D72 2019-02-13 01:59:19 20.9 19 22.2
003B5D72 2019-02-13 01:30:09 21 19 22.1
003B5D72 2019-02-13 01:00:57 21 19 21.9
003B5D72 2019-02-13 00:31:47 21 19 22
003B5D72 2019-02-13 00:02:36 21 20 21.7
003B5D72 2019-02-12 23:33:27 21.1 20 21.6
003B5D72 2019-02-12 23:04:16 21.1 19 22.4
003B5D72 2019-02-12 22:35:05 21.1 19 22.4
003B5D72 2019-02-12 22:05:53 21.2 19 22.2
003B5D72 2019-02-12 21:36:44 21.2 20 22.1
003B5D72 2019-02-12 21:07:33 21.3 21 22
003B5D72 2019-02-12 20:38:24 21.4 21 21.6
003B5D72 2019-02-12 20:09:14 21.5 21 21.6
003B5D72 2019-02-12 19:40:05 21.6 20 21.4
003B5D72 2019-02-12 19:10:56 21.6 20 21.5
003B5D72 2019-02-12 18:41:47 21.6 20 21.6
003B5D72 2019-02-12 18:12:36 21.6 19 21.7
003B5D72 2019-02-12 17:43:26 21.7 19 21.8
003B5D72 2019-02-12 17:14:15 21.8 19 22.1
003B5D72 2019-02-12 16:45:06 21.9 19 22.2
003B5D72 2019-02-12 16:15:11 21.9 19 22.3
003B5D72 2019-02-12 15:46:00 21.9 19 22.3
003B5D72 2019-02-12 15:16:50 21.9 19 22.4
003B5D72 2019-02-12 14:47:39 21.7 19 22.4
003B5D72 2019-02-12 14:18:29 21.5 20 22.3
003B5D72 2019-02-12 13:49:18 21.4 20 22.5
003B5D72 2019-02-12 13:20:07 21.4 20 22.6
003B5D72 2019-02-12 12:50:56 21.4 20 22.7
003B5D72 2019-02-12 12:21:46 21.4 20 22.9
003B5D72 2019-02-12 11:52:37 21.4 21 23.1
003B5D72 2019-02-12 11:23:27 21.4 21 23
003B5D72 2019-02-12 10:54:19 21.3 22 22.1
003B5D72 2019-02-12 10:25:10 21.3 23 22.1
003B5D72 2019-02-12 09:56:01 21.2 23 22.3
003B5D72 2019-02-12 09:26:52 21.1 23 22.3
003B5D72 2019-02-12 08:57:43 21 23 22.3
003B5D72 2019-02-12 08:28:34 20.9 24 22.5
003B5D72 2019-02-12 07:59:25 20.9 24 22.5
003B5D72 2019-02-12 07:30:15 20.9 25 22.5
003B5D72 2019-02-12 07:01:05 20.9 26 22.4
003B5D72 2019-02-12 06:31:56 20.9 26 22.5
003B5D72 2019-02-12 06:02:47 20.9 26 22.2
003B5D72 2019-02-12 05:33:37 20.9 26 22.2
003B5D72 2019-02-12 05:04:26 20.9 26 22.1
003B5D72 2019-02-12 04:35:17 20.9 27 22
003B5D72 2019-02-12 04:06:05 20.9 27 22
003B5D72 2019-02-12 03:36:55 21 27 22.1
003B5D72 2019-02-12 03:07:45 20.9 27 22.1
003B5D72 2019-02-12 02:38:35 21 27 22.1
003B5D72 2019-02-12 02:09:24 21 27 22.3
003B5D72 2019-02-12 01:40:14 21 27 22.2
003B5D72 2019-02-12 01:11:04 21 27 22.3
003B5D72 2019-02-12 00:41:54 21 27 22.4
003B5D72 2019-02-12 00:12:45 21 27 22.1
003B5D72 2019-02-11 23:43:34 21.1 27 21.9
003B5D72 2019-02-11 23:14:24 21.1 27 22.1
003B5D72 2019-02-11 22:45:11 21.1 27 22.3
003B5D72 2019-02-11 22:16:00 21.2 27 22.2
003B5D72 2019-02-11 21:46:50 21.2 27 22.1
003B5D72 2019-02-11 21:17:39 21.3 27 22.1
003B5D72 2019-02-11 20:48:30 21.4 27 22
003B5D72 2019-02-11 20:19:20 21.4 27 21.7
003B5D72 2019-02-11 19:50:10 21.5 27 21.5
003B5D72 2019-02-11 19:21:00 21.6 27 21.5
003B5D72 2019-02-11 18:51:49 21.7 27 22
003B5D72 2019-02-11 18:22:38 21.9 27 20.8
003B5D72 2019-02-11 17:53:27 22 28 21.2
003B5D72 2019-02-11 17:24:16 22.1 28 21.8
003B5D72 2019-02-11 16:55:06 22.1 28 18.1
003B5D72 2019-02-11 16:25:55 22.1 33 0